Hourly Weather Puerto Ayacucho

Today, 8 July, Wednesday

Time Temperature Precipitation Wind Pressure Humidity
00:00 +25°C° 0 mm 1 mps 752 mmHg 92%
01:00 +25°C° 0 mm 1 mps 752 mmHg 92%
02:00 +25°C° 0 mm 1 mps 751 mmHg 92%
03:00 +25°C° 0 mm 1 mps 751 mmHg 93%
04:00 +24°C° 0 mm 1 mps 751 mmHg 93%
05:00 +25°C° 0 mm 1 mps 751 mmHg 92%
06:00 +26°C° 0 mm 1 mps 752 mmHg 91%
07:00 +26°C° 0 mm 1 mps 752 mmHg 89%
08:00 +28°C° 0 mm 2 mps 752 mmHg 82%
09:00 +29°C° 0 mm 2 mps 752 mmHg 75%
10:00 +31°C° 0 mm 2 mps 752 mmHg 68%
11:00 +33°C° 0 mm 3 mps 751 mmHg 66%
12:00 +33°C° 0 mm 3 mps 750 mmHg 63%
13:00 +34°C° 0 mm 3 mps 750 mmHg 61%
14:00 +34°C° 0.6 mm 2 mps 749 mmHg 64%
15:00 +34°C° 0.6 mm 2 mps 749 mmHg 68%
16:00 +34°C° 0.6 mm 2 mps 748 mmHg 71%
17:00 +31°C° 1.8 mm 2 mps 749 mmHg 76%
18:00 +29°C° 1.8 mm 2 mps 749 mmHg 81%
19:00 +28°C° 1.8 mm 1 mps 749 mmHg 86%
20:00 +27°C° 2.7 mm 1 mps 750 mmHg 88%
21:00 +27°C° 2.7 mm 1 mps 750 mmHg 90%
22:00 +27°C° 2.7 mm 1 mps 751 mmHg 92%
23:00 +26°C° 1 mm 1 mps 751 mmHg 93%

Tomorrow, 9 July, Thursday

Time Temperature Precipitation Wind Pressure Humidity
00:00 +26°C° 1 mm 1 mps 751 mmHg 93%
01:00 +26°C° 1 mm 1 mps 750 mmHg 94%
02:00 +26°C° 0.3 mm 1 mps 750 mmHg 95%
03:00 +25°C° 0.3 mm 1 mps 750 mmHg 95%
04:00 +25°C° 0.3 mm 1 mps 750 mmHg 96%
05:00 +25°C° 0 mm 1 mps 751 mmHg 94%
06:00 +26°C° 0 mm 1 mps 751 mmHg 93%
07:00 +24°C° 0 mm 0 mps 752 mmHg 91%
08:00 +28°C° 0 mm 1 mps 752 mmHg 84%
09:00 +30°C° 0 mm 1 mps 752 mmHg 76%
10:00 +32°C° 0 mm 1 mps 752 mmHg 69%
11:00 +32°C° 2.1 mm 1 mps 751 mmHg 68%
12:00 +33°C° 2.1 mm 1 mps 750 mmHg 66%
13:00 +34°C° 2.1 mm 2 mps 750 mmHg 65%
14:00 +33°C° 1 mm 1 mps 749 mmHg 68%
15:00 +32°C° 1 mm 1 mps 749 mmHg 70%
16:00 +32°C° 1 mm 1 mps 748 mmHg 73%
17:00 +30°C° 0.9 mm 1 mps 749 mmHg 77%
18:00 +29°C° 0.9 mm 1 mps 749 mmHg 82%
19:00 +28°C° 0.9 mm 1 mps 750 mmHg 86%
20:00 +27°C° 0.5 mm 1 mps 751 mmHg 88%
21:00 +27°C° 0.5 mm 1 mps 751 mmHg 89%
22:00 +26°C° 0.5 mm 1 mps 752 mmHg 91%
23:00 +26°C° 1.6 mm 1 mps 751 mmHg 92%

Day after tomorrow, 10 July, Friday

Time Temperature Precipitation Wind Pressure Humidity
00:00 +25°C° 1.6 mm 2 mps 751 mmHg 94%
01:00 +25°C° 1.6 mm 2 mps 751 mmHg 95%
02:00 +25°C° 1.4 mm 2 mps 751 mmHg 95%
03:00 +25°C° 1.4 mm 2 mps 751 mmHg 95%
04:00 +25°C° 1.4 mm 2 mps 751 mmHg 96%
05:00 +25°C° 2.1 mm 2 mps 752 mmHg 96%
06:00 +25°C° 2.1 mm 2 mps 752 mmHg 96%
07:00 +25°C° 2.1 mm 2 mps 753 mmHg 97%
08:00 +26°C° 0.5 mm 2 mps 753 mmHg 94%
09:00 +26°C° 0.5 mm 2 mps 753 mmHg 92%
10:00 +27°C° 0.5 mm 3 mps 753 mmHg 89%
11:00 +28°C° 0 mm 3 mps 753 mmHg 84%
12:00 +29°C° 0 mm 3 mps 752 mmHg 78%
13:00 +30°C° 0 mm 4 mps 751 mmHg 73%
14:00 +30°C° 0.1 mm 3 mps 751 mmHg 74%
15:00 +30°C° 0.1 mm 3 mps 751 mmHg 76%
16:00 +30°C° 0.1 mm 3 mps 750 mmHg 78%
17:00 +29°C° 0.1 mm 2 mps 751 mmHg 80%
18:00 +28°C° 0.1 mm 2 mps 751 mmHg 82%
19:00 +27°C° 0.1 mm 1 mps 752 mmHg 85%
20:00 +27°C° 0.1 mm 1 mps 752 mmHg 86%
21:00 +27°C° 0.1 mm 1 mps 752 mmHg 87%
22:00 +27°C° 0.1 mm 1 mps 753 mmHg 88%
23:00 +26°C° 2.4 mm 1 mps 752 mmHg 90%

11 July, Saturday

Time Temperature Precipitation Wind Pressure Humidity
00:00 +26°C° 2.4 mm 1 mps 752 mmHg 93%
01:00 +26°C° 2.4 mm 1 mps 751 mmHg 95%
02:00 +25°C° 3.4 mm 1 mps 751 mmHg 96%
03:00 +25°C° 3.4 mm 1 mps 751 mmHg 97%
04:00 +25°C° 3.4 mm 2 mps 751 mmHg 97%
05:00 +25°C° 1.4 mm 2 mps 752 mmHg 97%
06:00 +24°C° 1.4 mm 1 mps 752 mmHg 97%
07:00 +24°C° 1.4 mm 1 mps 752 mmHg 97%
08:00 +25°C° 0.2 mm 1 mps 753 mmHg 96%
09:00 +25°C° 0.2 mm 1 mps 753 mmHg 95%
10:00 +25°C° 0.2 mm 1 mps 754 mmHg 94%
11:00 +25°C° 0.3 mm 1 mps 753 mmHg 94%
12:00 +25°C° 0.3 mm 1 mps 753 mmHg 94%
13:00 +25°C° 0.3 mm 1 mps 752 mmHg 94%
14:00 +25°C° 0.2 mm 1 mps 752 mmHg 94%
15:00 +25°C° 0.2 mm 1 mps 751 mmHg 94%
16:00 +25°C° 0.2 mm 1 mps 751 mmHg 94%
17:00 +25°C° 0 mm 1 mps 751 mmHg 94%
18:00 +25°C° 0 mm 1 mps 751 mmHg 95%
19:00 +24°C° 0 mm 1 mps 751 mmHg 95%
20:00 +24°C° 0 mm 1 mps 752 mmHg 95%
21:00 +24°C° 0 mm 1 mps 752 mmHg 94%
22:00 +23°C° 0 mm 0 mps 753 mmHg 94%
23:00 +22°C° 0 mm 0 mps 752 mmHg 94%

12 July, Sunday

Time Temperature Precipitation Wind Pressure Humidity
00:00 +22°C° 0 mm 0 mps 752 mmHg 94%
01:00 +22°C° 0 mm 0 mps 751 mmHg 94%
02:00 +22°C° 0 mm 0 mps 752 mmHg 94%
03:00 +22°C° 0 mm 0 mps 752 mmHg 94%
04:00 +22°C° 0 mm 0 mps 752 mmHg 94%
05:00 +24°C° 0.1 mm 1 mps 752 mmHg 94%
06:00 +24°C° 0.1 mm 1 mps 753 mmHg 94%
07:00 +24°C° 0.1 mm 1 mps 753 mmHg 94%
08:00 +25°C° 0.8 mm 1 mps 753 mmHg 94%
09:00 +23°C° 0.8 mm 0 mps 753 mmHg 94%
10:00 +23°C° 0.8 mm 0 mps 754 mmHg 94%
11:00 +26°C° 0 mm 1 mps 753 mmHg 86%
12:00 +28°C° 0 mm 1 mps 752 mmHg 79%
13:00 +30°C° 0 mm 2 mps 751 mmHg 71%
14:00 +30°C° 0 mm 2 mps 751 mmHg 71%
15:00 +30°C° 0 mm 2 mps 750 mmHg 70%
16:00 +30°C° 0 mm 2 mps 749 mmHg 70%
17:00 +29°C° 0 mm 2 mps 750 mmHg 74%
18:00 +28°C° 0 mm 1 mps 751 mmHg 78%
19:00 +27°C° 0 mm 1 mps 751 mmHg 82%
20:00 +27°C° 0 mm 1 mps 752 mmHg 84%
21:00 +26°C° 0 mm 1 mps 752 mmHg 85%
22:00 +26°C° 0 mm 1 mps 753 mmHg 86%
23:00 +26°C° 1.1 mm 1 mps 752 mmHg 88%

13 July, Monday

Time Temperature Precipitation Wind Pressure Humidity
00:00 +26°C° 1.1 mm 1 mps 752 mmHg 90%
01:00 +25°C° 1.1 mm 1 mps 751 mmHg 93%
02:00 +25°C° 1.7 mm 1 mps 751 mmHg 94%
03:00 +23°C° 1.7 mm 0 mps 751 mmHg 95%
04:00 +23°C° 1.7 mm 0 mps 751 mmHg 96%
05:00 +23°C° 1.9 mm 0 mps 752 mmHg 96%
06:00 +25°C° 1.9 mm 1 mps 752 mmHg 96%
07:00 +25°C° 1.9 mm 1 mps 753 mmHg 96%
08:00 +26°C° 1.5 mm 2 mps 753 mmHg 95%
09:00 +26°C° 1.5 mm 2 mps 753 mmHg 94%
10:00 +27°C° 1.5 mm 3 mps 754 mmHg 93%
11:00 +27°C° 0.8 mm 3 mps 753 mmHg 90%
12:00 +28°C° 0.8 mm 3 mps 752 mmHg 88%
13:00 +29°C° 0.8 mm 3 mps 752 mmHg 86%
14:00 +28°C° 1.2 mm 3 mps 751 mmHg 87%
15:00 +28°C° 1.2 mm 3 mps 751 mmHg 88%
16:00 +28°C° 1.2 mm 3 mps 750 mmHg 89%
17:00 +27°C° 1.5 mm 2 mps 751 mmHg 91%
18:00 +26°C° 1.5 mm 2 mps 752 mmHg 93%
19:00 +26°C° 1.5 mm 2 mps 752 mmHg 95%
20:00 +25°C° 0.6 mm 1 mps 753 mmHg 95%
21:00 +25°C° 0.6 mm 1 mps 753 mmHg 96%
22:00 +25°C° 0.6 mm 1 mps 753 mmHg 97%
23:00 +25°C° 0.3 mm 1 mps 753 mmHg 97%
Show more